[[{"header":{"parameterUnit":"m.s-1","parameterCategory":1,"la1":30.2991,"la2":30.254,"lo1":-89.0895,"lo2":-89.0444,"dy":0.0017,"dx":0.0017,"nx":28,"ny":28,"refTime":"2025-07-17T21:00:00:Z","depth":0,"parameterNumber":2,"parameterNumberName":"U-component_of_WINDS"},"data":[0,0,0,0,0,0,0,0,0,0,0,0,0,0,0,0,0,0,0,0,0,0,0,0,0,0,0,0,0,0,0,0,0,0,0,0,0,0,0,0,0,0,0,0,0,0,0,0,0,0,0,0,0,0,0,0,0,0,-1.8269,-1.8275,0,-1.8807,-1.8813,-1.8819,-1.9071,-1.9071,-1.9071,-1.907,-1.9623,-1.9638,-1.9653,0,0,0,0,0,0,0,0,0,0,0,0,0,-1.7463,-1.7477,-1.8269,-1.8275,-1.8282,-1.8806,-1.8813,-1.882,-1.9071,-1.9071,-1.9071,-1.907,-1.9618,-1.9636,-1.9654,0,0,0,0,0,0,0,0,0,0,0,0,0,-1.7888,-1.7481,-1.8268,-1.8471,-1.8494,-1.8804,-1.8813,-1.8822,-1.9072,-1.9071,-1.9071,-1.907,-1.9612,-1.9634,-1.9656,-1.9806,0,0,-1.9725,-1.9735,0,0,0,0,0,0,0,0,-1.7864,-1.7917,-1.8434,-1.8457,-1.8484,-1.8871,-1.8732,-1.9152,-1.9072,-1.8852,-1.907,-1.907,-1.9374,-1.9416,-1.9518,-1.9832,-1.9855,-1.9727,-1.9741,-1.9751,-1.9757,0,0,0,0,0,0,0,-1.7834,-1.7896,-1.8482,-1.8441,-1.8472,-1.8536,-1.8596,-1.8813,-1.9109,-1.8871,-1.8891,-1.8951,-1.9387,-1.9495,-1.9533,-1.9863,-1.9727,-1.9747,-1.9761,-1.9769,-2.0329,-2.033,0,0,0,0,0,0,-1.7771,-1.7869,-1.8465,-1.8498,-1.8166,-1.8551,-1.8618,-1.8748,-1.9108,-1.9162,-1.8951,-1.8961,-1.9457,-1.9506,-1.9553,-1.9754,-1.975,-1.9772,-1.9785,-2.0328,-2.0329,-2.0331,0,0,0,0,0,0,-1.7753,-1.7822,-1.8443,-1.8189,-1.8273,-1.8565,-1.8709,-1.8758,-1.8867,-1.9168,-1.9222,-1.9007,-1.9459,-1.9521,-1.9741,-1.9776,-1.9782,-1.9802,-2.0326,-2.0328,-2.033,-2.0153,0,0,0,0,0,0,-1.7728,-1.7814,-1.7872,-1.8189,-1.8286,-1.8621,-1.8711,-1.8769,-1.8905,-1.8923,-1.9235,-1.9286,-1.9463,-1.9706,-1.9764,-1.9807,-1.982,-2.0324,-2.0327,-2.0329,-2.0157,-2.0149,-2.0142,0,0,0,0,0,-1.7699,-1.7801,-1.7874,-1.7945,-1.8365,-1.8622,-1.8678,-1.8879,-1.8906,-1.8969,-1.9162,-1.9276,-1.9762,-1.9727,-1.9794,-1.9844,-2.0323,-2.0326,-2.0329,-2.0161,-2.015,-2.0142,0,0,0,0,0,0,-1.7483,-1.7847,-1.7931,-1.8139,-1.8347,-1.8664,-1.8749,-1.8862,-1.9068,-1.9076,-1.9318,-1.9386,-1.9585,-1.9737,-1.9691,-2.0009,-2.0053,-2.007,-1.9902,-1.9895,-1.9887,-1.9847,-1.9839,0,0,0,0,0,-1.7459,-1.7636,-1.7945,-1.8098,-1.8199,-1.8455,-1.8575,-1.8711,-1.8938,-1.9028,-1.9237,-1.9453,-1.9656,-1.9784,-1.9986,-2.018,-2.0252,-2.0248,-2.0239,-2.0232,-2.0244,-2.0359,-2.0361,-2.0341,-2.0341,-2.0341,0,0,-1.7412,-1.7633,-1.773,-1.8061,-1.8239,-1.8418,-1.8528,-1.8713,-1.8849,-1.9057,-1.9278,-1.9438,-1.9695,-1.9903,-2.0005,-2.0036,-2.0265,-2.0236,-2.0227,-2.0244,-2.0363,-2.0364,-2.0366,-2.0343,-2.0342,-2.0342,0,0,-1.7419,-1.7603,-1.7752,-1.7928,-1.8195,-1.8365,-1.84,-1.8701,-1.8816,-1.9041,-1.9201,-1.9366,-1.9708,-1.9886,-2.002,-2.0093,-2.0206,-2.0153,-2.0113,-2.0222,-2.0224,-2.0227,-2.0255,-2.0262,-2.0163,-2.0163,-2.0163,0,-1.7328,-1.7603,-1.7814,-1.7991,-1.8132,-1.8327,-1.8481,-1.8641,-1.8961,-1.9054,-1.9084,-1.9518,-1.9705,-1.9958,-1.9975,-2.0077,-2.0127,-2.0119,-2.0206,-2.0211,-2.0217,-2.0247,-2.0256,-2.0155,-2.0156,-2.0156,-2.0157,0,-1.7478,-1.7667,-1.7755,-1.8059,-1.821,-1.8373,-1.861,-1.8738,-1.8861,-1.9028,-1.9256,-1.9487,-1.974,-1.9809,-1.9932,-2.008,-2.0091,-2.016,-2.021,-2.0207,-2.0239,-2.0252,-2.0143,-2.0146,-2.0148,-2.015,0,0,-1.7365,-1.7783,-1.7812,-1.7953,-1.8262,-1.8413,-1.8585,-1.8833,-1.8938,-1.9152,-1.9304,-1.9589,-1.9655,-1.9808,-1.9952,-2.0048,-2.0093,-2.0107,-2.0116,-2.0097,-2.0273,-2.022,-2.0229,-2.0169,-2.0172,-2.0174,-2.0252,0,-1.7416,-1.7734,-1.7929,-1.8169,-1.8347,-1.8535,-1.8686,-1.8892,-1.9053,-1.9228,-1.9406,-1.9605,-1.9676,-1.977,-1.9873,-2.0065,-2.0132,-2.0062,-2.0315,-2.0321,-2.0246,-2.0246,-2.0192,-2.0253,-2.0266,-2.0268,-2.0269,0,-1.7519,-1.7727,-1.7984,-1.8275,-1.8357,-1.8489,-1.8732,-1.8896,-1.9135,-1.9245,-1.9414,-1.956,-1.9751,-1.9784,-2.0052,-2.0,-2.0115,-2.0225,-2.0232,-2.0265,-2.0296,-2.0281,-2.0278,-2.0287,-2.0291,-2.0289,-2.0288,0,-1.7412,-1.7757,-1.7957,-1.8071,-1.8414,-1.8503,-1.865,-1.8888,-1.9025,-1.9237,-1.9328,-1.9559,-1.9686,-1.9862,-2.0066,-2.0071,-2.0314,-2.0363,-2.0412,-2.0407,-2.0457,-2.0451,-2.0474,-2.0526,-2.0526,-2.0526,-2.0526,0,-1.7449,-1.7599,-1.7913,-1.8035,-1.821,-1.8433,-1.86,-1.8763,-1.8973,-1.9131,-1.9307,-1.9452,-1.9712,-1.989,-2.0051,-2.0249,-2.0305,-2.04,-2.0441,-2.0386,-2.0374,-2.0466,-2.0467,-2.0529,-2.0528,-2.0528,-2.0527,0,-1.736,-1.7576,-1.7806,-1.8112,-1.8192,-1.8307,-1.8571,-1.8697,-1.8866,-1.9065,-1.9124,-1.939,-1.9609,-1.9829,-2.0123,-2.0232,-2.0427,-2.0482,-2.0345,-2.0369,-2.0406,-2.04,-2.0491,-2.0515,-2.0547,-2.0546,-2.0545,0,-1.737,-1.7491,-1.7809,-1.7928,-1.8071,-1.8259,-1.8399,-1.8623,-1.8762,-1.9043,-1.9136,-1.9367,-1.9564,-1.9903,-2.0124,-2.035,-2.0414,-2.043,-2.0449,-2.0389,-2.0416,-2.0407,-2.0421,-2.0422,-2.042,-2.0419,-2.0418,0,-1.7366,-1.7467,-1.7662,-1.7894,-1.8055,-1.8249,-1.8449,-1.8536,-1.88,-1.8947,-1.9172,-1.9324,-1.9625,-1.9852,-2.0105,-2.0258,-2.0383,-2.041,-2.0434,-2.0379,-2.0296,-2.0343,-2.0326,-2.0407,-2.0409,-2.0409,-2.041,-2.041,-1.733,-1.7446,-1.7688,-1.7899,-1.8073,-1.8256,-1.8391,-1.8577,-1.8768,-1.903,-1.915,-1.9376,-1.9614,-1.9966,-2.0116,-2.0297,-2.0331,-2.0365,-2.0374,-2.0379,-2.0367,-2.0264,-2.0344,-2.0345,-2.0345,-2.0346,-2.0346,0,-1.7336,-1.7501,-1.7693,-1.7968,-1.8134,-1.8235,-1.8462,-1.8595,-1.8791,-1.9001,-1.9192,-1.945,-1.9672,-1.9909,-2.0146,-2.0245,-2.0308,-2.0299,-2.0295,-2.0329,-2.0322,-2.0279,-2.0245,-2.0245,-2.0245,-2.0245,-2.0244,-2.0244,-1.7359,-1.7561,-1.769,-1.7981,-1.8147,-1.8369,-1.849,-1.8661,-1.883,-1.9111,-1.9296,-1.9449,-1.9671,-1.9925,-2.0133,-2.0198,-2.0277,-2.0252,-2.0332,-2.0322,-2.0329,-2.0336,-2.0297,-2.0267,-2.0267,-2.0326,-2.0326,-2.0326]},{"header":{"parameterUnit":"m.s-1","parameterCategory":1,"la1":30.2991,"la2":30.254,"lo1":-89.0895,"lo2":-89.0444,"dy":0.0017,"dx":0.0017,"nx":28,"ny":28,"refTime":"2025-07-17T21:00:00:Z","depth":0,"parameterNumber":3,"parameterNumberName":"V-component_of_WINDS"},"data":[0,0,0,0,0,0,0,0,0,0,0,0,0,0,0,0,0,0,0,0,0,0,0,0,0,0,0,0,0,0,0,0,0,0,0,0,0,0,0,0,0,0,0,0,0,0,0,0,0,0,0,0,0,0,0,0,0,0,-3.6559,-3.6558,0,-3.6435,-3.6434,-3.6433,-3.6306,-3.6305,-3.6303,-3.6301,-3.6166,-3.6164,-3.6162,0,0,0,0,0,0,0,0,0,0,0,0,0,-3.6678,-3.6676,-3.6559,-3.6558,-3.6556,-3.6436,-3.6434,-3.6432,-3.6307,-3.6305,-3.6303,-3.6301,-3.6167,-3.6164,-3.6162,0,0,0,0,0,0,0,0,0,0,0,0,0,-3.6597,-3.6676,-3.656,-3.6479,-3.6471,-3.6436,-3.6434,-3.6432,-3.6307,-3.6305,-3.6302,-3.63,-3.6167,-3.6164,-3.6161,-3.6193,0,0,-3.6152,-3.6151,0,0,0,0,0,0,0,0,-3.6602,-3.6593,-3.6493,-3.6485,-3.6475,-3.6384,-3.6426,-3.6351,-3.6308,-3.6369,-3.6301,-3.6299,-3.624,-3.6231,-3.6213,-3.6187,-3.6181,-3.6152,-3.615,-3.6149,-3.6148,0,0,0,0,0,0,0,-3.6608,-3.6598,-3.651,-3.6491,-3.6481,-3.6446,-3.6432,-3.6411,-3.632,-3.6364,-3.6354,-3.6342,-3.6234,-3.6216,-3.6209,-3.6179,-3.6152,-3.6149,-3.6147,-3.6146,-3.617,-3.6172,0,0,0,0,0,0,-3.6627,-3.6603,-3.6514,-3.6506,-3.6534,-3.6446,-3.643,-3.6416,-3.632,-3.6303,-3.6344,-3.6336,-3.6222,-3.6212,-3.6203,-3.6233,-3.6149,-3.6146,-3.6144,-3.6167,-3.617,-3.6173,0,0,0,0,0,0,-3.663,-3.662,-3.6519,-3.6552,-3.6537,-3.6447,-3.6431,-3.6415,-3.6396,-3.6305,-3.6287,-3.6343,-3.622,-3.6208,-3.6197,-3.6227,-3.6144,-3.6141,-3.6164,-3.6168,-3.6171,-3.6294,0,0,0,0,0,0,-3.6634,-3.6622,-3.6636,-3.6554,-3.6536,-3.6518,-3.6433,-3.6414,-3.6392,-3.6381,-3.6299,-3.6283,-3.6217,-3.6202,-3.6194,-3.6221,-3.6139,-3.6161,-3.6166,-3.617,-3.6287,-3.6302,-3.6314,0,0,0,0,0,-3.6639,-3.6673,-3.6637,-3.6627,-3.6551,-3.652,-3.6509,-3.6436,-3.6395,-3.6406,-3.6348,-3.6285,-3.6225,-3.6202,-3.6191,-3.6218,-3.6159,-3.6165,-3.617,-3.6281,-3.6299,-3.6314,0,0,0,0,0,0,-3.6759,-3.6661,-3.662,-3.663,-3.6584,-3.6499,-3.6511,-3.6457,-3.642,-3.641,-3.6317,-3.63,-3.6299,-3.6257,-3.6233,-3.6243,-3.6183,-3.6187,-3.6271,-3.6287,-3.63,-3.631,-3.6137,0,0,0,0,0,-3.6787,-3.6773,-3.6687,-3.6704,-3.6683,-3.6602,-3.6585,-3.6532,-3.648,-3.646,-3.64,-3.6349,-3.6318,-3.63,-3.6267,-3.628,-3.6259,-3.6293,-3.6306,-3.6318,-3.6322,-3.6324,-3.6338,-3.6191,-3.6191,-3.6191,0,0,-3.6844,-3.6789,-3.6785,-3.6726,-3.6685,-3.667,-3.6586,-3.6573,-3.656,-3.6456,-3.6444,-3.6398,-3.6334,-3.6336,-3.6333,-3.6301,-3.6358,-3.6325,-3.6335,-3.6333,-3.6331,-3.6345,-3.6358,-3.6195,-3.6194,-3.6193,0,0,-3.694,-3.6898,-3.6907,-3.6868,-3.6807,-3.6752,-3.6754,-3.6677,-3.6643,-3.6629,-3.6551,-3.6532,-3.6481,-3.6439,-3.6411,-3.649,-3.6431,-3.6481,-3.6552,-3.6555,-3.6567,-3.6576,-3.6604,-3.6615,-3.6486,-3.6486,-3.6486,0,-3.7018,-3.6995,-3.6918,-3.691,-3.6886,-3.6794,-3.6801,-3.6765,-3.6696,-3.6679,-3.6645,-3.6579,-3.653,-3.6519,-3.6539,-3.6519,-3.6516,-3.6491,-3.6572,-3.6581,-3.6589,-3.6613,-3.6624,-3.6493,-3.6492,-3.6491,-3.6491,0,-3.7093,-3.7078,-3.7092,-3.703,-3.7007,-3.7007,-3.6927,-3.6912,-3.6861,-3.6809,-3.6793,-3.6731,-3.6684,-3.6677,-3.6625,-3.6658,-3.664,-3.659,-3.6528,-3.6611,-3.6632,-3.6641,-3.6502,-3.65,-3.6498,-3.6496,0,0,-3.7262,-3.7158,-3.7165,-3.7135,-3.7061,-3.7046,-3.704,-3.6996,-3.6984,-3.6938,-3.693,-3.6888,-3.6842,-3.681,-3.6752,-3.6755,-3.682,-3.6704,-3.6701,-3.6727,-3.685,-3.6889,-3.6901,-3.678,-3.6782,-3.6783,-3.6855,0,-3.7345,-3.7333,-3.7263,-3.727,-3.7254,-3.7165,-3.7159,-3.7112,-3.7062,-3.7038,-3.6981,-3.6954,-3.6895,-3.6875,-3.6874,-3.6813,-3.6844,-3.6807,-3.6768,-3.6768,-3.6788,-3.6913,-3.6953,-3.7025,-3.6863,-3.6865,-3.6866,0,-3.7441,-3.7405,-3.7412,-3.7337,-3.7327,-3.7324,-3.7277,-3.7256,-3.7199,-3.7162,-3.7127,-3.7063,-3.7048,-3.699,-3.6967,-3.6943,-3.6922,-3.689,-3.6891,-3.6884,-3.6822,-3.6909,-3.7046,-3.7057,-3.6878,-3.6877,-3.6876,0,-3.7564,-3.7516,-3.7513,-3.7491,-3.7403,-3.7403,-3.7366,-3.7306,-3.7284,-3.7241,-3.7225,-3.7181,-3.7156,-3.7121,-3.7045,-3.7011,-3.703,-3.6966,-3.6996,-3.6998,-3.7005,-3.7006,-3.714,-3.6992,-3.6992,-3.6992,-3.6992,0,-3.7664,-3.7672,-3.7567,-3.7566,-3.757,-3.7488,-3.7493,-3.7447,-3.7394,-3.738,-3.7298,-3.7286,-3.7187,-3.7161,-3.7101,-3.709,-3.7079,-3.7047,-3.7031,-3.7054,-3.7059,-3.704,-3.7033,-3.6994,-3.6994,-3.6993,-3.6993,0,-3.7803,-3.7733,-3.7725,-3.7643,-3.7623,-3.7629,-3.7558,-3.7551,-3.7496,-3.7479,-3.7469,-3.7383,-3.7348,-3.727,-3.7213,-3.7172,-3.7176,-3.7147,-3.7197,-3.7187,-3.7222,-3.722,-3.7349,-3.7362,-3.7207,-3.7208,-3.721,0,-3.7872,-3.7875,-3.7795,-3.7781,-3.7749,-3.7727,-3.7704,-3.7622,-3.7601,-3.7535,-3.7535,-3.7495,-3.7459,-3.7408,-3.7337,-3.7293,-3.7262,-3.731,-3.7254,-3.7278,-3.7262,-3.7263,-3.7262,-3.7323,-3.7325,-3.7327,-3.7328,0,-3.8001,-3.7967,-3.7939,-3.7899,-3.7875,-3.7839,-3.7798,-3.779,-3.7696,-3.7676,-3.7642,-3.7615,-3.7558,-3.7518,-3.7463,-3.742,-3.7358,-3.7346,-3.7351,-3.7375,-3.7404,-3.7388,-3.7231,-3.7344,-3.7342,-3.7341,-3.734,-3.734,-3.8106,-3.8105,-3.8049,-3.802,-3.7981,-3.7945,-3.7934,-3.7879,-3.7851,-3.7801,-3.7752,-3.7723,-3.7661,-3.7582,-3.7543,-3.7516,-3.7484,-3.7491,-3.7493,-3.7496,-3.7506,-3.7409,-3.7505,-3.7505,-3.7504,-3.7504,-3.7503,0,-3.8231,-3.8191,-3.8166,-3.8112,-3.8089,-3.8035,-3.7986,-3.7969,-3.7946,-3.7896,-3.7863,-3.7822,-3.7783,-3.7709,-3.7662,-3.7654,-3.7624,-3.7645,-3.7644,-3.7635,-3.7537,-3.7538,-3.767,-3.767,-3.767,-3.767,-3.767,-3.767,-3.8294,-3.829,-3.8248,-3.8222,-3.818,-3.8154,-3.813,-3.8094,-3.8054,-3.8014,-3.7983,-3.7936,-3.7875,-3.7823,-3.7784,-3.7762,-3.7748,-3.7778,-3.7748,-3.7658,-3.7642,-3.7627,-3.7627,-3.7776,-3.7776,-3.7848,-3.7848,-3.7849]}]]